Location: Newark
(33.7579°N, 132.8129°E)
Time: 07:32:40
(UTC+00:00)

Hubble Space Telescope - Pass Details

Date: 20 November 2019
Orbit: 536 x 540 km, 28.5° (Epoch: 12 December)

Event Time Altitude Azimuth Distance (km) Brightness Sun altitude
Rises 09:56:23 0° 247° (WSW) 2,668 5.6 -23.4°
Reaches altitude 10° 09:58:46 10° 238° (WSW) 1,779 4.3 -23.9°
Enters shadow 10:02:02 33° 188° (S) 904 2.0 -24.5°
